• In Latvia
  • List of Countries
  • For 7 days
  • Water Temperature
  • Satellite Maps
  • Weather Map
  • Weather Widgets
  • user-avatar
    Login

    Hourly Weather Kirov

    Today, 23 May, Wednesday

    Time Temperature Precipitation Wind Pressure Humidity
    00:00 +21°C° 0.2 mm 2 mps 758 mmHg 78%
    01:00 +20°C° 0.3 mm 2 mps 758 mmHg 80%
    02:00 +20°C° 0.3 mm 2 mps 758 mmHg 83%
    03:00 +19°C° 0.3 mm 2 mps 758 mmHg 85%
    04:00 +20°C° 0.1 mm 2 mps 758 mmHg 85%
    05:00 +20°C° 0.1 mm 2 mps 758 mmHg 85%
    06:00 +20°C° 0.1 mm 2 mps 758 mmHg 85%
    07:00 +20°C° 0.2 mm 2 mps 758 mmHg 83%
    08:00 +21°C° 0.2 mm 3 mps 758 mmHg 81%
    09:00 +22°C° 0.2 mm 3 mps 758 mmHg 79%
    10:00 +24°C° 0.1 mm 3 mps 758 mmHg 75%
    11:00 +26°C° 0.1 mm 3 mps 758 mmHg 70%
    12:00 +27°C° 0.1 mm 3 mps 758 mmHg 66%
    13:00 +28°C° 1.2 mm 3 mps 757 mmHg 65%
    14:00 +28°C° 1.2 mm 3 mps 757 mmHg 64%
    15:00 +28°C° 1.2 mm 3 mps 757 mmHg 63%
    16:00 +28°C° 0.6 mm 2 mps 757 mmHg 64%
    17:00 +28°C° 0.6 mm 1 mps 756 mmHg 65%
    18:00 +28°C° 0.6 mm 1 mps 756 mmHg 66%
    19:00 +26°C° 0 mm 1 mps 756 mmHg 69%
    20:00 +25°C° 0 mm 1 mps 756 mmHg 72%
    21:00 +23°C° 0 mm 2 mps 756 mmHg 75%
    22:00 +23°C° 0.1 mm 1 mps 755 mmHg 75%
    23:00 +23°C° 0.1 mm 1 mps 755 mmHg 75%

    Tomorrow, 24 May, Thursday

    Time Temperature Precipitation Wind Pressure Humidity
    00:00 +22°C° 0.1 mm 1 mps 755 mmHg 75%
    01:00 +22°C° 0 mm 1 mps 755 mmHg 75%
    02:00 +22°C° 0 mm 1 mps 755 mmHg 76%
    03:00 +22°C° 0 mm 1 mps 754 mmHg 76%
    04:00 +22°C° 0 mm 1 mps 754 mmHg 77%
    05:00 +22°C° 0 mm 1 mps 754 mmHg 79%
    06:00 +22°C° 0 mm 1 mps 754 mmHg 80%
    07:00 +23°C° 0 mm 1 mps 754 mmHg 76%
    08:00 +25°C° 0 mm 1 mps 754 mmHg 71%
    09:00 +26°C° 0 mm 1 mps 754 mmHg 66%
    10:00 +27°C° 0.1 mm 2 mps 754 mmHg 63%
    11:00 +28°C° 0.1 mm 2 mps 754 mmHg 60%
    12:00 +29°C° 0.1 mm 2 mps 753 mmHg 57%
    13:00 +29°C° 0 mm 2 mps 753 mmHg 56%
    14:00 +29°C° 0 mm 2 mps 753 mmHg 55%
    15:00 +29°C° 0 mm 2 mps 753 mmHg 54%
    16:00 +29°C° 0 mm 2 mps 752 mmHg 56%
    17:00 +29°C° 0 mm 2 mps 752 mmHg 59%
    18:00 +28°C° 0 mm 2 mps 752 mmHg 62%
    19:00 +27°C° 0.1 mm 2 mps 752 mmHg 67%
    20:00 +25°C° 0.1 mm 2 mps 752 mmHg 72%
    21:00 +23°C° 0.1 mm 2 mps 752 mmHg 77%
    22:00 +23°C° 0 mm 2 mps 752 mmHg 79%
    23:00 +21°C° 0 mm 2 mps 752 mmHg 81%

    Day after tomorrow, 25 May, Friday

    Time Temperature Precipitation Wind Pressure Humidity
    00:00 +21°C° 0 mm 2 mps 752 mmHg 83%
    01:00 +20°C° 0 mm 2 mps 752 mmHg 84%
    02:00 +21°C° 0 mm 1 mps 752 mmHg 85%
    03:00 +20°C° 0 mm 1 mps 752 mmHg 86%
    04:00 +21°C° 0 mm 1 mps 752 mmHg 84%
    05:00 +21°C° 0 mm 1 mps 752 mmHg 83%
    06:00 +21°C° 0 mm 1 mps 752 mmHg 81%
    07:00 +23°C° 0 mm 2 mps 752 mmHg 74%
    08:00 +24°C° 0 mm 2 mps 753 mmHg 68%
    09:00 +26°C° 0 mm 3 mps 753 mmHg 61%
    10:00 +27°C° 0 mm 3 mps 753 mmHg 57%
    11:00 +28°C° 0 mm 3 mps 753 mmHg 53%
    12:00 +29°C° 0 mm 4 mps 753 mmHg 49%
    13:00 +29°C° 0 mm 4 mps 753 mmHg 49%
    14:00 +29°C° 0 mm 5 mps 753 mmHg 49%
    15:00 +30°C° 0 mm 5 mps 753 mmHg 49%
    16:00 +29°C° 0 mm 5 mps 753 mmHg 54%
    17:00 +28°C° 0 mm 5 mps 753 mmHg 59%
    18:00 +27°C° 0 mm 5 mps 753 mmHg 63%
    19:00 +24°C° 0 mm 6 mps 754 mmHg 66%
    20:00 +23°C° 0 mm 6 mps 754 mmHg 68%
    21:00 +22°C° 0 mm 6 mps 755 mmHg 70%
    22:00 +21°C° 0 mm 7 mps 755 mmHg 71%
    23:00 +20°C° 0 mm 7 mps 756 mmHg 72%

    26 May, Saturday

    Time Temperature Precipitation Wind Pressure Humidity
    00:00 +18°C° 0 mm 8 mps 756 mmHg 73%
    01:00 +17°C° 0 mm 8 mps 757 mmHg 71%
    02:00 +16°C° 0 mm 8 mps 757 mmHg 69%
    03:00 +15°C° 0 mm 8 mps 758 mmHg 66%
    04:00 +13°C° 0 mm 8 mps 758 mmHg 66%
    05:00 +13°C° 0 mm 8 mps 759 mmHg 65%
    06:00 +12°C° 0 mm 8 mps 760 mmHg 64%
    07:00 +12°C° 0 mm 9 mps 760 mmHg 60%
    08:00 +13°C° 0 mm 9 mps 761 mmHg 57%
    09:00 +13°C° 0 mm 9 mps 762 mmHg 53%
    10:00 +15°C° 0 mm 9 mps 762 mmHg 51%
    11:00 +16°C° 0 mm 9 mps 762 mmHg 49%
    12:00 +17°C° 0 mm 9 mps 762 mmHg 47%
    13:00 +18°C° 0 mm 9 mps 763 mmHg 47%
    14:00 +18°C° 0 mm 9 mps 763 mmHg 46%
    15:00 +18°C° 0 mm 9 mps 763 mmHg 45%
    16:00 +18°C° 0 mm 8 mps 763 mmHg 48%
    17:00 +17°C° 0 mm 8 mps 763 mmHg 50%
    18:00 +17°C° 0 mm 7 mps 763 mmHg 52%
    19:00 +16°C° 0 mm 7 mps 764 mmHg 52%
    20:00 +15°C° 0 mm 6 mps 764 mmHg 52%
    21:00 +13°C° 0 mm 6 mps 765 mmHg 52%
    22:00 +13°C° 0 mm 6 mps 765 mmHg 51%
    23:00 +11°C° 0 mm 6 mps 765 mmHg 50%

    27 May, Sunday

    Time Temperature Precipitation Wind Pressure Humidity
    00:00 +11°C° 0 mm 6 mps 765 mmHg 49%
    01:00 +10°C° 0 mm 6 mps 765 mmHg 50%
    02:00 +10°C° 0 mm 6 mps 765 mmHg 51%
    03:00 +9°C° 0 mm 6 mps 765 mmHg 52%
    04:00 +9°C° 0 mm 6 mps 765 mmHg 55%
    05:00 +9°C° 0 mm 6 mps 765 mmHg 57%
    06:00 +9°C° 0 mm 6 mps 765 mmHg 60%
    07:00 +10°C° 0 mm 7 mps 765 mmHg 57%
    08:00 +12°C° 0 mm 7 mps 765 mmHg 53%
    09:00 +13°C° 0 mm 8 mps 766 mmHg 50%
    10:00 +16°C° 0 mm 8 mps 765 mmHg 48%
    11:00 +17°C° 0 mm 8 mps 765 mmHg 46%
    12:00 +18°C° 0 mm 8 mps 765 mmHg 44%
    13:00 +18°C° 0 mm 8 mps 764 mmHg 44%
    14:00 +20°C° 0 mm 7 mps 764 mmHg 44%
    15:00 +21°C° 0 mm 7 mps 764 mmHg 43%
    16:00 +20°C° 0 mm 6 mps 763 mmHg 46%
    17:00 +20°C° 0 mm 6 mps 763 mmHg 49%
    18:00 +20°C° 0 mm 5 mps 763 mmHg 52%
    19:00 +17°C° 0 mm 5 mps 763 mmHg 53%
    20:00 +15°C° 0 mm 4 mps 763 mmHg 55%
    21:00 +14°C° 0 mm 4 mps 763 mmHg 56%
    22:00 +13°C° 0 mm 4 mps 763 mmHg 55%
    23:00 +13°C° 0 mm 4 mps 763 mmHg 54%

    28 May, Monday

    Time Temperature Precipitation Wind Pressure Humidity
    00:00 +12°C° 0 mm 4 mps 763 mmHg 53%
    01:00 +12°C° 0 mm 4 mps 763 mmHg 53%
    02:00 +11°C° 0 mm 4 mps 763 mmHg 53%
    03:00 +11°C° 0 mm 4 mps 763 mmHg 53%
    04:00 +11°C° 0 mm 4 mps 763 mmHg 56%
    05:00 +11°C° 0 mm 4 mps 763 mmHg 59%
    06:00 +11°C° 0 mm 4 mps 763 mmHg 62%
    07:00 +14°C° 0 mm 4 mps 763 mmHg 57%
    08:00 +17°C° 0 mm 4 mps 763 mmHg 52%
    09:00 +19°C° 0 mm 5 mps 763 mmHg 47%
    10:00 +21°C° 0 mm 5 mps 763 mmHg 45%
    11:00 +22°C° 0 mm 5 mps 763 mmHg 44%
    12:00 +23°C° 0 mm 5 mps 762 mmHg 42%
    13:00 +25°C° 0 mm 5 mps 762 mmHg 43%
    14:00 +26°C° 0 mm 5 mps 762 mmHg 44%
    15:00 +26°C° 0 mm 5 mps 762 mmHg 45%
    16:00 +26°C° 0 mm 4 mps 762 mmHg 49%
    17:00 +26°C° 0 mm 4 mps 761 mmHg 54%
    18:00 +25°C° 0 mm 3 mps 761 mmHg 58%
    19:00 +24°C° 0 mm 3 mps 761 mmHg 62%
    20:00 +21°C° 0 mm 4 mps 762 mmHg 65%
    21:00 +20°C° 0 mm 4 mps 762 mmHg 69%
    22:00 +19°C° 0 mm 4 mps 762 mmHg 68%
    23:00 +17°C° 0 mm 5 mps 762 mmHg 67%
    Show more